sat.trackr.live / text

‹ back to catalog

STARLINK-36596

NORAD 67670 · 2026-022Y

PAYLOAD ACTIVE UNKNOWN

§ Identity

Operator
Country
US
Launch date
2026-02-02
Launch site
AFWTR
Launch vehicle
Mass (kg)
RCS (m²)

Purposes: comms

External: N2YO · Heavens-Above · Gunter

§ Orbital elements

Epoch: 2026-09-19T19:31:14.406816Z

Period
93.90 min
Inclination
97.2848°
Eccentricity
0.0001196
Mean motion
15.33467574 rev/d
Perigee alt
464.7 km
Apogee alt
466.3 km
Semi-major
6,843.6 km
B*
5.2756e-4
RAAN
294.4124°
Arg perigee
256.6566°
Mean anomaly
103.4544°
Rev number
3,532

§ Raw data

STARLINK-365961 67670U 26022Y   26262.81336119  .00017007  00000+0  52756-3 0  99902 67670  97.2848 294.4124 0001196 256.6566 103.4544 15.33467574 35324

JSON: /api/v1/satellites/67670 · /tle

For live sub-satellite position, see the globe view (requires WebGL).

§ Visibility from observer

Set your observer location to see the next 7 days of passes ≥ 10°. The values pass through the URL so the page stays shareable.

No JS? Fill the form by hand. The geolocation button needs JavaScript.